Location: Agendoh
(31.0664°N, 8.9343°W)
Time: 07:08:29
(UTC+00:00)

Envisat - Pass Details

Date: 06 December 2021
Orbit: 764 x 766 km, 98.2° (Epoch: 24 January)

Event Time Altitude Azimuth Distance (km) Brightness Sun altitude
Rises 06:00:55 0° 3° (N) 3,235 6.1 -16.7°
Reaches altitude 10° 06:03:19 10° 356° (N) 2,305 5.3 -16.2°
Maximum altitude 06:08:04 42° 287° (WNW) 1,087 3.3 -15.2°
Drops below altitude 10° 06:12:48 10° 218° (SW) 2,292 5.3 -14.2°
Sets 06:15:12 0° 211° (SSW) 3,214 6.1 -13.7°
